Time,TemperatureF,DewpointF,PressureIn,WindDirection,WindDirectionDegrees,WindSpeedMPH,WindSpeedGustMPH,Humidity,HourlyPrecipIn,Conditions,Clouds,dailyrainin,SoftwareType,DateUTC
2013-02-03 00:01:00,21.0,11.0,-100.00,SE,135,6.0,9.0,65,0.00,,,-99.99,,2013-02-03 07:01:00,
2013-02-03 00:11:00,20.0,11.0,-100.00,SE,140,7.0,9.0,65,0.00,,,-99.99,,2013-02-03 07:11:00,
2013-02-03 00:21:00,20.0,11.0,-100.00,SE,140,7.0,9.0,65,0.00,,,-99.99,,2013-02-03 07:21:00,
2013-02-03 00:31:00,20.0,10.0,-100.00,SE,140,5.0,12.0,65,0.00,,,-99.99,,2013-02-03 07:31:00,
2013-02-03 00:41:00,20.0,10.0,-100.00,SE,130,3.0,7.0,65,0.00,,,-99.99,,2013-02-03 07:41:00,
2013-02-03 00:52:00,20.0,10.0,-100.00,ESE,115,6.0,10.0,65,0.00,,,-99.99,,2013-02-03 07:52:00,
2013-02-03 01:01:00,19.0,10.0,-100.00,SE,135,5.0,9.0,65,0.00,,,-99.99,,2013-02-03 08:01:00,
2013-02-03 01:11:00,19.0,9.0,-100.00,SE,135,3.0,10.0,65,0.00,,,-99.99,,2013-02-03 08:11:00,
2013-02-03 01:22:00,19.0,10.0,-100.00,SE,125,6.0,9.0,65,0.00,,,-99.99,,2013-02-03 08:22:00,
2013-02-03 01:32:00,19.0,10.0,-100.00,SE,140,7.0,12.0,66,0.00,,,-99.99,,2013-02-03 08:32:00,
2013-02-03 01:41:00,19.0,9.0,-100.00,SE,140,8.0,11.0,66,0.00,,,-99.99,,2013-02-03 08:41:00,
2013-02-03 01:51:00,19.0,9.0,-100.00,SE,135,9.0,14.0,66,0.00,,,-99.99,,2013-02-03 08:51:00,
2013-02-03 02:02:00,19.0,9.0,-100.00,SE,135,11.0,13.0,66,0.00,,,-99.99,,2013-02-03 09:02:00,
2013-02-03 02:11:00,19.0,9.0,-100.00,SE,125,6.0,11.0,66,0.00,,,-99.99,,2013-02-03 09:11:00,
2013-02-03 02:21:00,18.0,9.0,-100.00,SE,125,4.0,10.0,66,0.00,,,-99.99,,2013-02-03 09:21:00,
2013-02-03 02:31:00,18.0,9.0,-100.00,SSE,155,2.0,8.0,66,0.00,,,-99.99,,2013-02-03 09:31:00,
2013-02-03 02:41:00,17.0,8.0,-100.00,SSE,150,3.0,7.0,66,0.00,,,-99.99,,2013-02-03 09:41:00,
2013-02-03 02:51:00,17.0,8.0,-100.00,SSW,210,0.0,6.0,66,0.00,,,-99.99,,2013-02-03 09:51:00,
2013-02-03 03:01:00,17.0,8.0,-100.00,SSE,160,4.0,7.0,66,0.00,,,-99.99,,2013-02-03 10:01:00,
2013-02-03 03:11:00,17.0,8.0,-100.00,South,185,0.0,6.0,67,0.00,,,-99.99,,2013-02-03 10:11:00,
2013-02-03 03:21:00,17.0,8.0,-100.00,SSE,155,2.0,4.0,67,0.00,,,-99.99,,2013-02-03 10:21:00,
2013-02-03 03:31:00,17.0,8.0,-100.00,South,180,0.0,4.0,67,0.00,,,-99.99,,2013-02-03 10:31:00,
2013-02-03 03:41:00,17.0,8.0,-100.00,SSE,160,3.0,6.0,68,0.00,,,-99.99,,2013-02-03 10:41:00,
2013-02-03 03:52:00,17.0,9.0,-100.00,SE,125,4.0,9.0,68,0.00,,,-99.99,,2013-02-03 10:52:00,
2013-02-03 04:01:00,17.0,9.0,-100.00,SSE,150,0.0,6.0,68,0.00,,,-99.99,,2013-02-03 11:01:00,
2013-02-03 04:11:00,17.0,8.0,-100.00,SE,135,1.0,6.0,68,0.00,,,-99.99,,2013-02-03 11:11:00,
2013-02-03 04:22:00,16.0,8.0,-100.00,SSE,155,1.0,6.0,69,0.00,,,-99.99,,2013-02-03 11:22:00,
2013-02-03 04:31:00,16.0,8.0,-100.00,East,100,4.0,7.0,69,0.00,,,-99.99,,2013-02-03 11:31:00,
2013-02-03 04:41:00,17.0,9.0,-100.00,South,175,0.0,6.0,69,0.00,,,-99.99,,2013-02-03 11:41:00,
2013-02-03 04:52:00,16.0,8.0,-100.00,SSE,155,3.0,7.0,69,0.00,,,-99.99,,2013-02-03 11:52:00,
2013-02-03 05:02:00,16.0,8.0,-100.00,SE,140,0.0,7.0,70,0.00,,,-99.99,,2013-02-03 12:02:00,
2013-02-03 05:11:00,16.0,8.0,-100.00,NNE,30,0.0,7.0,70,0.00,,,-99.99,,2013-02-03 12:11:00,
2013-02-03 05:21:00,16.0,8.0,-100.00,NNW,335,0.0,0.0,70,0.00,,,-99.99,,2013-02-03 12:21:00,
2013-02-03 05:32:00,16.0,8.0,-100.00,ENE,70,0.0,2.0,71,0.00,,,-99.99,,2013-02-03 12:32:00,
2013-02-03 05:42:00,15.0,8.0,-100.00,ENE,75,0.0,4.0,71,0.00,,,-99.99,,2013-02-03 12:42:00,
2013-02-03 05:52:00,15.0,8.0,-100.00,South,170,0.0,5.0,71,0.00,,,-99.99,,2013-02-03 12:52:00,
2013-02-03 06:02:00,15.0,8.0,-100.00,East,100,0.0,2.0,71,0.00,,,-99.99,,2013-02-03 13:02:00,
2013-02-03 06:11:00,15.0,8.0,-100.00,South,185,0.0,3.0,72,0.00,,,-99.99,,2013-02-03 13:11:00,
2013-02-03 06:21:00,15.0,8.0,-100.00,SE,130,5.0,9.0,72,0.00,,,-99.99,,2013-02-03 13:21:00,
2013-02-03 06:32:00,16.0,9.0,-100.00,North,5,2.0,10.0,73,0.00,,,-99.99,,2013-02-03 13:32:00,
2013-02-03 06:41:00,15.0,8.0,-100.00,SSW,195,0.0,1.0,73,0.00,,,-99.99,,2013-02-03 13:41:00,
2013-02-03 06:52:00,16.0,9.0,-100.00,SSE,165,1.0,6.0,73,0.00,,,-99.99,,2013-02-03 13:52:00,
2013-02-03 07:02:00,16.0,9.0,-100.00,North,0,0.0,3.0,73,0.00,,,-99.99,,2013-02-03 14:02:00,
2013-02-03 07:11:00,16.0,9.0,-100.00,ENE,75,0.0,6.0,73,0.00,,,-99.99,,2013-02-03 14:11:00,
2013-02-03 07:21:00,15.0,9.0,-100.00,SE,140,3.0,6.0,73,0.00,,,-99.99,,2013-02-03 14:21:00,
2013-02-03 07:31:00,16.0,9.0,-100.00,East,80,1.0,4.0,73,0.00,,,-99.99,,2013-02-03 14:31:00,
2013-02-03 07:42:00,15.0,8.0,-100.00,SSE,155,0.0,1.0,73,0.00,,,-99.99,,2013-02-03 14:42:00,
2013-02-03 07:52:00,15.0,8.0,-100.00,East,85,1.0,2.0,73,0.00,,,-99.99,,2013-02-03 14:52:00,
2013-02-03 08:02:00,16.0,9.0,-100.00,ESE,105,3.0,5.0,74,0.00,,,-99.99,,2013-02-03 15:02:00,
2013-02-03 08:11:00,17.0,10.0,-100.00,East,95,1.0,4.0,74,0.00,,,-99.99,,2013-02-03 15:11:00,
2013-02-03 08:21:00,17.0,10.0,-100.00,ENE,65,0.0,1.0,74,0.00,,,-99.99,,2013-02-03 15:21:00,
2013-02-03 08:32:00,17.0,11.0,-100.00,ENE,60,1.0,3.0,74,0.00,,,-99.99,,2013-02-03 15:32:00,
2013-02-03 08:41:00,18.0,11.0,-100.00,SE,135,4.0,6.0,74,0.00,,,-99.99,,2013-02-03 15:41:00,
2013-02-03 08:51:00,19.0,12.0,-100.00,ENE,65,2.0,6.0,73,0.00,,,-99.99,,2013-02-03 15:51:00,
2013-02-03 09:02:00,19.0,12.0,-100.00,North,0,0.0,3.0,72,0.00,,,-99.99,,2013-02-03 16:02:00,
2013-02-03 09:11:00,20.0,13.0,-100.00,SE,140,5.0,7.0,71,0.00,,,-99.99,,2013-02-03 16:11:00,
2013-02-03 09:21:00,21.0,13.0,-100.00,SE,145,7.0,9.0,69,0.00,,,-99.99,,2013-02-03 16:21:00,
2013-02-03 09:32:00,22.0,14.0,-100.00,East,80,1.0,8.0,68,0.00,,,-99.99,,2013-02-03 16:32:00,
2013-02-03 09:41:00,25.0,15.0,-100.00,NE,55,0.0,3.0,66,0.00,,,-99.99,,2013-02-03 16:41:00,
2013-02-03 09:52:00,26.0,16.0,-100.00,East,95,0.0,2.0,64,0.00,,,-99.99,,2013-02-03 16:52:00,
2013-02-03 10:02:00,27.0,15.0,-100.00,SW,215,1.0,4.0,60,0.00,,,-99.99,,2013-02-03 17:02:00,
2013-02-03 10:11:00,29.0,16.0,-100.00,WSW,250,0.0,2.0,58,0.00,,,-99.99,,2013-02-03 17:11:00,
2013-02-03 10:21:00,31.0,17.0,-100.00,West,260,0.0,0.0,54,0.00,,,-99.99,,2013-02-03 17:21:00,
2013-02-03 10:31:00,32.0,16.0,-100.00,West,280,0.0,1.0,51,0.00,,,-99.99,,2013-02-03 17:31:00,
2013-02-03 10:41:00,33.0,16.0,-100.00,West,265,0.0,0.0,48,0.00,,,-99.99,,2013-02-03 17:41:00,
2013-02-03 10:52:00,33.0,15.0,-100.00,West,260,0.0,0.0,46,0.00,,,-99.99,,2013-02-03 17:52:00,
2013-02-03 11:02:00,32.0,13.0,-100.00,SW,235,0.0,0.0,45,0.00,,,-99.99,,2013-02-03 18:02:00,
2013-02-03 11:11:00,33.0,14.0,-100.00,West,260,0.0,3.0,45,0.00,,,-99.99,,2013-02-03 18:11:00,
2013-02-03 11:22:00,34.0,15.0,-100.00,WSW,250,0.0,0.0,44,0.00,,,-99.99,,2013-02-03 18:22:00,
2013-02-03 11:32:00,34.0,14.0,-100.00,NNW,330,3.0,4.0,43,0.00,,,-99.99,,2013-02-03 18:32:00,
2013-02-03 11:41:00,34.0,14.0,-100.00,WSW,250,1.0,4.0,44,0.00,,,-99.99,,2013-02-03 18:41:00,
2013-02-03 11:51:00,34.0,14.0,-100.00,SSW,210,0.0,0.0,43,0.00,,,-99.99,,2013-02-03 18:51:00,
2013-02-03 12:01:00,35.0,15.0,-100.00,NE,50,0.0,0.0,43,0.00,,,-99.99,,2013-02-03 19:01:00,
2013-02-03 12:11:00,35.0,14.0,-100.00,North,0,2.0,4.0,42,0.00,,,-99.99,,2013-02-03 19:11:00,
2013-02-03 12:21:00,35.0,14.0,-100.00,NNW,330,0.0,3.0,42,0.00,,,-99.99,,2013-02-03 19:21:00,
2013-02-03 12:31:00,37.0,15.0,-100.00,West,260,0.0,3.0,41,0.00,,,-99.99,,2013-02-03 19:31:00,
2013-02-03 12:41:00,37.0,15.0,-100.00,NW,315,1.0,4.0,39,0.00,,,-99.99,,2013-02-03 19:41:00,
2013-02-03 12:51:00,37.0,14.0,-100.00,NW,320,1.0,4.0,39,0.00,,,-99.99,,2013-02-03 19:51:00,
2013-02-03 13:01:00,37.0,15.0,-100.00,West,280,1.0,6.0,39,0.00,,,-99.99,,2013-02-03 20:01:00,
2013-02-03 13:11:00,37.0,15.0,-100.00,WNW,285,1.0,6.0,39,0.00,,,-99.99,,2013-02-03 20:11:00,
2013-02-03 13:21:00,37.0,15.0,-100.00,WNW,285,0.0,0.0,40,0.00,,,-99.99,,2013-02-03 20:21:00,
2013-02-03 13:32:00,38.0,16.0,-100.00,WSW,250,0.0,6.0,40,0.00,,,-99.99,,2013-02-03 20:32:00,
2013-02-03 13:42:00,38.0,17.0,-100.00,West,265,2.0,4.0,40,0.00,,,-99.99,,2013-02-03 20:42:00,
2013-02-03 13:52:00,39.0,17.0,-100.00,West,270,1.0,4.0,40,0.00,,,-99.99,,2013-02-03 20:52:00,
2013-02-03 14:02:00,39.0,17.0,-100.00,West,270,1.0,4.0,40,0.00,,,-99.99,,2013-02-03 21:02:00,
2013-02-03 14:11:00,39.0,16.0,-100.00,WNW,290,4.0,7.0,39,0.00,,,-99.99,,2013-02-03 21:11:00,
2013-02-03 14:21:00,39.0,15.0,-100.00,NW,320,0.0,9.0,38,0.00,,,-99.99,,2013-02-03 21:21:00,
2013-02-03 14:32:00,39.0,15.0,-100.00,NNW,340,4.0,11.0,37,0.00,,,-99.99,,2013-02-03 21:32:00,
2013-02-03 14:42:00,39.0,15.0,-100.00,NW,315,1.0,7.0,37,0.00,,,-99.99,,2013-02-03 21:42:00,
2013-02-03 14:51:00,40.0,15.0,-100.00,NW,320,2.0,6.0,36,0.00,,,-99.99,,2013-02-03 21:51:00,
2013-02-03 15:01:00,40.0,15.0,-100.00,WSW,255,4.0,7.0,35,0.00,,,-99.99,,2013-02-03 22:01:00,
2013-02-03 15:11:00,40.0,15.0,-100.00,West,260,2.0,7.0,35,0.00,,,-99.99,,2013-02-03 22:11:00,
2013-02-03 15:21:00,40.0,15.0,-100.00,West,260,4.0,10.0,35,0.00,,,-99.99,,2013-02-03 22:21:00,
2013-02-03 15:31:00,40.0,15.0,-100.00,West,260,1.0,6.0,35,0.00,,,-99.99,,2013-02-03 22:31:00,
2013-02-03 15:41:00,40.0,14.0,-100.00,West,265,3.0,6.0,35,0.00,,,-99.99,,2013-02-03 22:41:00,
2013-02-03 15:51:00,39.0,14.0,-100.00,WSW,245,4.0,7.0,35,0.00,,,-99.99,,2013-02-03 22:51:00,
2013-02-03 16:01:00,39.0,14.0,-100.00,West,260,4.0,6.0,35,0.00,,,-99.99,,2013-02-03 23:01:00,
2013-02-03 16:11:00,39.0,14.0,-100.00,SW,225,2.0,6.0,35,0.00,,,-99.99,,2013-02-03 23:11:00,
2013-02-03 16:21:00,38.0,14.0,-100.00,WSW,245,2.0,6.0,36,0.00,,,-99.99,,2013-02-03 23:21:00,
2013-02-03 16:32:00,38.0,14.0,-100.00,West,265,1.0,6.0,37,0.00,,,-99.99,,2013-02-03 23:32:00,
2013-02-03 16:41:00,37.0,14.0,-100.00,West,260,3.0,6.0,37,0.00,,,-99.99,,2013-02-03 23:41:00,
2013-02-03 16:52:00,37.0,14.0,-100.00,WSW,240,1.0,4.0,38,0.00,,,-99.99,,2013-02-03 23:52:00,
2013-02-03 17:01:00,37.0,14.0,-100.00,SW,230,0.0,7.0,38,0.00,,,-99.99,,2013-02-04 00:01:00,
2013-02-03 17:11:00,36.0,13.0,-100.00,WSW,245,1.0,5.0,38,0.00,,,-99.99,,2013-02-04 00:11:00,
2013-02-03 17:21:00,36.0,13.0,-100.00,NE,35,1.0,3.0,39,0.00,,,-99.99,,2013-02-04 00:21:00,
2013-02-03 17:31:00,35.0,13.0,-100.00,SSW,210,1.0,9.0,39,0.00,,,-99.99,,2013-02-04 00:31:00,
2013-02-03 17:41:00,35.0,13.0,-100.00,NW,320,2.0,4.0,40,0.00,,,-99.99,,2013-02-04 00:41:00,
2013-02-03 17:51:00,34.0,13.0,-100.00,North,350,1.0,3.0,40,0.00,,,-99.99,,2013-02-04 00:51:00,
2013-02-03 18:01:00,34.0,12.0,-100.00,North,0,0.0,1.0,40,0.00,,,-99.99,,2013-02-04 01:01:00,
2013-02-03 18:11:00,32.0,11.0,-100.00,NNE,25,1.0,6.0,41,0.00,,,-99.99,,2013-02-04 01:11:00,
2013-02-03 18:21:00,31.0,11.0,-100.00,East,100,0.0,1.0,42,0.00,,,-99.99,,2013-02-04 01:21:00,
2013-02-03 18:31:00,30.0,11.0,-100.00,SE,130,0.0,0.0,44,0.00,,,-99.99,,2013-02-04 01:31:00,
2013-02-03 18:41:00,30.0,13.0,-100.00,ESE,110,4.0,7.0,46,0.00,,,-99.99,,2013-02-04 01:41:00,
2013-02-03 18:51:00,29.0,12.0,-100.00,East,80,0.0,3.0,47,0.00,,,-99.99,,2013-02-04 01:51:00,
2013-02-03 19:01:00,29.0,12.0,-100.00,SSW,210,0.0,4.0,48,0.00,,,-99.99,,2013-02-04 02:01:00,
2013-02-03 19:11:00,28.0,11.0,-100.00,ENE,75,0.0,7.0,49,0.00,,,-99.99,,2013-02-04 02:11:00,
2013-02-03 19:21:00,27.0,11.0,-100.00,North,0,0.0,0.0,50,0.00,,,-99.99,,2013-02-04 02:21:00,
2013-02-03 19:31:00,26.0,10.0,-100.00,SSW,210,0.0,0.0,51,0.00,,,-99.99,,2013-02-04 02:31:00,
2013-02-03 19:41:00,26.0,11.0,-100.00,East,80,1.0,6.0,52,0.00,,,-99.99,,2013-02-04 02:41:00,
2013-02-03 19:52:00,26.0,12.0,-100.00,SE,145,1.0,6.0,54,0.00,,,-99.99,,2013-02-04 02:52:00,
2013-02-03 20:01:00,27.0,13.0,-100.00,ESE,115,7.0,12.0,54,0.00,,,-99.99,,2013-02-04 03:01:00,
2013-02-03 20:11:00,25.0,11.0,-100.00,SW,220,1.0,4.0,54,0.00,,,-99.99,,2013-02-04 03:11:00,
2013-02-03 20:21:00,25.0,11.0,-100.00,ENE,75,0.0,1.0,55,0.00,,,-99.99,,2013-02-04 03:21:00,
2013-02-03 20:31:00,24.0,11.0,-100.00,SSW,200,0.0,0.0,56,0.00,,,-99.99,,2013-02-04 03:31:00,
2013-02-03 20:41:00,24.0,11.0,-100.00,SSE,150,1.0,6.0,57,0.00,,,-99.99,,2013-02-04 03:41:00,
2013-02-03 20:51:00,23.0,10.0,-100.00,SE,130,0.0,3.0,57,0.00,,,-99.99,,2013-02-04 03:51:00,
2013-02-03 21:01:00,23.0,11.0,-100.00,ENE,70,0.0,5.0,58,0.00,,,-99.99,,2013-02-04 04:01:00,
2013-02-03 21:11:00,22.0,10.0,-100.00,SSE,160,0.0,0.0,59,0.00,,,-99.99,,2013-02-04 04:11:00,
2013-02-03 21:21:00,24.0,12.0,-100.00,ESE,120,7.0,9.0,60,0.00,,,-99.99,,2013-02-04 04:21:00,
2013-02-03 21:31:00,23.0,11.0,-100.00,SSW,210,0.0,9.0,60,0.00,,,-99.99,,2013-02-04 04:31:00,
2013-02-03 21:41:00,22.0,10.0,-100.00,ESE,105,0.0,1.0,60,0.00,,,-99.99,,2013-02-04 04:41:00,
2013-02-03 21:52:00,20.0,9.0,-100.00,South,170,0.0,0.0,61,0.00,,,-99.99,,2013-02-04 04:52:00,
2013-02-03 22:03:00,20.0,10.0,-100.00,East,100,1.0,4.0,62,0.00,,,-99.99,,2013-02-04 05:03:00,
2013-02-03 22:11:00,19.0,9.0,-100.00,NNW,330,0.0,6.0,63,0.00,,,-99.99,,2013-02-04 05:11:00,
2013-02-03 22:21:00,19.0,9.0,-100.00,West,265,0.0,4.0,64,0.00,,,-99.99,,2013-02-04 05:21:00,
2013-02-03 22:33:00,20.0,10.0,-100.00,ESE,120,6.0,10.0,65,0.00,,,-99.99,,2013-02-04 05:33:00,
2013-02-03 22:41:00,21.0,11.0,-100.00,SE,145,5.0,11.0,66,0.00,,,-99.99,,2013-02-04 05:41:00,
2013-02-03 22:51:00,20.0,11.0,-100.00,ESE,120,6.0,10.0,66,0.00,,,-99.99,,2013-02-04 05:51:00,
2013-02-03 23:01:00,20.0,11.0,-100.00,SE,135,10.0,14.0,65,0.00,,,-99.99,,2013-02-04 06:01:00,
2013-02-03 23:11:00,20.0,11.0,-100.00,SE,130,7.0,14.0,65,0.00,,,-99.99,,2013-02-04 06:11:00,
2013-02-03 23:21:00,19.0,10.0,-100.00,NW,305,0.0,8.0,64,0.00,,,-99.99,,2013-02-04 06:21:00,
2013-02-03 23:31:00,19.0,9.0,-100.00,ENE,75,2.0,11.0,64,0.00,,,-99.99,,2013-02-04 06:31:00,
2013-02-03 23:41:00,18.0,8.0,-100.00,ENE,75,0.0,4.0,64,0.00,,,-99.99,,2013-02-04 06:41:00,
2013-02-03 23:51:00,18.0,8.0,-100.00,NW,315,0.0,2.0,65,0.00,,,-99.99,,2013-02-04 06:51:00,